Regional Weather Roundup
Issued by NWS

Home | Current Version | Previous Version | Text Only | Print | Product List | Glossary Off
Versions: 1 2 3 4 5 6 7 8 9 10 11 12 13 14 15 16 17 18 19 20 21 22 23 24 25 26 27 28 29 30 31 32 33 34 35 36 37 38 39 40 41 42 43 44 45 46 47 48 49 50

000
ASUS45 KSLC 181810
RWRUT

UTAH REGIONAL WEATHER ROUNDUP
NATIONAL WEATHER SERVICE SALT LAKE CITY UT
1200 PM MDT THU SEP 18 2014

UTZ001>011-023>025-181900-

NORTHERN UTAH

CITY           SKY/WX    TMP DP  RH WIND       PRES   REMARKS
HILL AFB       NOT AVBL
LOGAN          SUNNY     86  54  33 S9        29.90F
OGDEN          SUNNY     87  48  25 S20G29    29.90F
PROVO AIRPORT  SUNNY     79  48  34 VRB5      29.97F
SALT LAKE CITY MOSUNNY   86  46  24 S17G25    29.90F
VERNAL         SUNNY     73  44  35 E5        30.05F
WENDOVER       SUNNY     84  48  28 E7        29.87F
HEBER CITY     SUNNY     73  43  33 CALM      30.02F
WEST JORDAN    SUNNY     82  45  26 S16G22    29.95F

$$

UTZ012>022-026-027-181900-

SOUTHERN UTAH

CITY           SKY/WX    TMP DP  RH WIND       PRES   REMARKS
BRYCE CANYON   SUNNY     68  48  48 SE10      30.19F
CEDAR CITY     SUNNY     77  51  40 SW12      30.03F
MILFORD        NOT AVBL
MOAB/CYNLANDS  SUNNY     82  45  27 SE7       29.98F
PRICE          SUNNY     77  42  28 S8        30.09F
ST GEORGE      CLEAR     84  54  34 NW9       29.89F
KANAB            N/A     81  48  32 NE6       30.03F

$$

REGIONAL REPORTS     COLORADO/ARIZONA

CITY           SKY/WX    TMP DP  RH WIND       PRES   REMARKS
CRAIG, CO      SUNNY     78  38  23 VRB3      30.10F
GRAND JUNCTION SUNNY     76  40  27 S6        30.03F
RIFLE          SUNNY     74  39  28 CALM      30.07F
MONTROSE       SUNNY     78  45  30 N8        30.09F
CORTEZ         SUNNY     75  48  38 VRB5      30.10F
PAGE, AZ       SUNNY     84  53  34 E5        29.98F
GRAND CANYON   PTSUNNY   71  50  47 SE10      30.13F
KINGMAN        PTSUNNY   83  59  44 SW10      29.93S
FLAGSTAFF      MOSUNNY   69  50  50 NE7       30.16F

$$

REGIONAL REPORTS    NEVADA/IDAHO/WYOMING

CITY           SKY/WX    TMP DP  RH WIND       PRES   REMARKS
LAS VEGAS, NV  MOSUNNY   92  46  20 S12       29.77F
ELY            MOSUNNY   77  48  35 SE16G32   30.03F
ELKO           PTSUNNY   85  47  26 S17G32    29.89F
POCATELLO, ID  MOSUNNY   80  49  33 W17       29.90R
BURLEY         PTSUNNY   78  49  35 W13G22    29.88S
EVANSTON, WY   SUNNY     76  42  29 SW16      30.11F
ROCK SPRINGS   SUNNY     77  33  20 NW6       30.10F

$$


USA.gov is the U.S. government's official web portal to all federal, state and local government web resources and services.